Weather in Vereshchaki

Ukraine / Cherkassi District     49°15′17″N   30°57′15″E
temp.,
°C
wind,
m/s
gust,
m/s
humid.,
%
clouds,
%
prec.,
mm/h
press.,
hPa
HPBL,
m
29 june, wed
wed2900:00+21ese33793 0.3 101834
03:00+19n227910 0.4 101811
06:00+19nne34865 0.0 101882
09:00+25ene3465100 0.0 1018479
12:00+30ene344616 0.0 10171684
15:00+32ene22349 0.0 10162743
18:00+31se323575 0.0 10132267
21:00+22n91275100 0.6 1016383
30 june, thu
thu3000:00+19e4892100 13.4 1016139
03:00+19se129291 13.6 101511
06:00+19nne34927 0.0 101575
09:00+23nne337684 0.1 1015457
12:00+27ne455710 0.0 10141282
15:00+27ne555799 0.9 10141571
18:00+25ene6761100 0.1 10151078
21:00+20e497222 0.1 1016322
1 july, fri
fri100:00+16e38880 0.0 1018160
03:00+14e36880 0.0 1018111
06:00+14e24830 0.0 1019106
09:00+20ene34620 0.0 1020676
12:00+24ene34510 0.0 10191587
15:00+27ne34395 0.0 10182217
18:00+27ene443924 0.0 10182143
21:00+20e33600 0.0 101931
2 july, sat
sat200:00+17e35690 0.0 102071
03:00+15e33815 0.0 102130
06:00+16e238329 0.0 102253
09:00+22e3357100 0.0 1022562
12:00+25ese3337100 0.0 10221660
15:00+27ese223335 0.0 10211878
18:00+27e21347 0.0 10201907
21:00+21se33532 0.0 102131
3 july, sun
sun300:00+18sse346139 0.0 102148
03:00+17s33642 0.0 102139
06:00+17ssw346538 0.0 102162
09:00+24s3444100 0.0 1020406
12:00+28s3234100 0.0 10201726
15:00+30sse2231100 0.0 10182414
18:00+30ese223267 0.0 10182265
21:00+21n4772100 0.0 1018148